Flag for Canada Weather past 2 weeks in Rainy River, Ontario, Canada

Now
43 °F

Passing clouds.


Feels Like: 37 °F
Forecast: 36 / 53 °F
Wind: 12 mph from North

Location: Baudette International Airport

Current Time: May 30, 2015 at 2:01:59 AM

Latest Report: May 30, 2015 at 12:53 AM


Visibility: 10 mi

Pressure: 30.27 "Hg

Humidity: 60%

Dew point: 30 °F

Location of Rainy RiverLocation

Historic Weather in Rainy River — Graph

°F

Rainy River temperature yesterday

Maximum temperature yesterday: 60 °F (at 12:53 AM)
Minimum temperature yesterday: 45 °F (at 11:53 PM)
Average temperature yesterday: 52 °F

Past Weeks' High & Low Weather Summary

 TemperatureHumidityPressure
High80 °F (May 26, 5:53 PM)100% (May 15, 6:53 AM)30.41 "Hg (May 15, 6:53 AM)
Low29 °F (May 19, 5:53 AM)20% (May 23, 6:53 PM)29.48 "Hg (May 17, 4:53 PM)
Average55 °F67%29.99 "Hg
* Reported May 15 12:53 AM — May 30 12:53 AM, Rainy River, Weather by CustomWeather, © 2015

Note: Actual official high and low records may vary slightly from our data, if they occured in-between our weather recording intervals... More about our weather records

Advertising

Rainy River weather history for previous 24 hours

 ConditionsComfort  
Time TempWeatherWind HumidityBarometerVisibility
12:53 AM
Sat, May 30
43 °FPassing clouds.12 mph60%30.27 "Hg10 mi
11:53 PM
Fri, May 29
45 °FOvercast.17 mph60%30.25 "Hg10 mi
10:53 PM47 °FOvercast.13 mph64%30.23 "Hg10 mi
9:53 PM47 °FScattered clouds.14 mph56%30.21 "Hg10 mi
8:53 PM48 °FPassing clouds.14 mph56%30.19 "Hg10 mi
7:53 PM51 °FSunny.15 mph54%30.17 "Hg10 mi
5:53 PM53 °FSunny.22 mph56%30.14 "Hg10 mi
4:53 PM53 °FScattered clouds.18 mph61%30.12 "Hg10 mi
3:53 PM53 °FPassing clouds.22 mph61%30.12 "Hg10 mi
2:53 PM52 °FPassing clouds.20 mph64%30.10 "Hg10 mi
1:53 PM50 °FOvercast.17 mph71%30.11 "Hg10 mi
12:53 PM50 °FOvercast.14 mph68%30.10 "Hg10 mi
11:53 AM49 °FOvercast.20 mph74%30.08 "Hg10 mi
10:53 AM48 °FOvercast.20 mph77%30.06 "Hg10 mi
9:53 AM47 °FOvercast.18 mph83%30.03 "Hg10 mi
8:53 AM48 °FLow clouds.20 mph86%30.01 "Hg10 mi
7:53 AM49 °FMostly cloudy.14 mph90%29.98 "Hg10 mi
6:53 AM51 °FLow clouds.16 mph89%29.95 "Hg10 mi
5:53 AM53 °FLow clouds.17 mph93%29.91 "Hg7 mi
4:53 AM57 °FOvercast.14 mph90%29.86 "Hg10 mi
3:53 AM58 °FLow clouds.17 mph90%29.85 "Hg10 mi
2:53 AM60 °FLow clouds.16 mph93%29.84 "Hg10 mi
Weather by CustomWeather, © 2015

See weather overviewHow to use our weather pages